Torna al catalogo

STARLINK-33763

AttivoComunicazioniVLEO
NORAD 63452·PAYLOAD·🇺🇸 United States

Lanciato Apr 4, 2025 da Vandenberg Space Force Base

Loading…

Prossimi Passaggi (prossime 24 ore)

TLE

AggiornatoSource: CelesTrak SupGP

Epoca: Sep 14, 2026, 21:26 UTC

1 63452C 25069V   26257.89354167 -.00017530  00000+0 -51800-3 0  2578
2 63452  53.1585 336.0482 0001218  84.2964 121.5973 15.34395435    11

Traccia STARLINK-33763 in tempo reale con AllMySat

Download on the App Store